Location: Belmond Community Hospital
(42.8453°N, 93.6121°W)
Time: 21:23:17
(UTC+00:00)

Daily predictions for brighter satellites

Satellite Brightness Start Highest point End
(mag) Time Altitude Azimuth Time Altitude Azimuth Time Altitude Azimuth
Cosmos 2237 Rocket 2.7 12:00:18 10° S 12:05:54 65° ESE 12:11:30 10° NNE
Cosmos 1933 3.9 12:06:17 23° NW 12:07:58 34° W 12:11:32 10° SSW
ATLAS 3B R/B 4.0 12:05:56 18° NW 12:08:39 22° NNW 12:14:23 10° NNE
ERS-2 1.5 12:05:50 10° NNE 12:08:46 84° E 12:11:41 10° SSW
CZ-4C R/B 4.1 12:03:02 10° NNW 12:09:34 38° NE 12:17:16 10° ESE
SAR-Lupe-2 4.0 12:06:19 10° NNE 12:09:54 63° ESE 12:13:26 10° S
PSLV R/B 3.5 12:07:42 10° N 12:11:58 64° WNW 12:16:11 10° SSW
Cosmos 2322 4.2 12:09:51 10° WSW 12:15:02 36° WNW 12:20:14 10° N
Cosmos 1862 3.5 12:12:09 10° SSW 12:15:49 43° WNW 12:19:32 10° N
COSMO-SKYMED 1 3.4 12:12:05 10° SSW 12:15:52 29° W 12:18:43 15° NW
Cosmos 2151 2.8 12:11:44 10° S 12:15:54 80° W 12:20:09 10° N
Meteor 2-3 Rocket 4.2 12:11:22 10° SW 12:16:24 34° WNW 12:21:29 10° N
SeaSat 1 4.1 12:13:26 10° ESE 12:17:42 30° NE 12:21:59 10° N
USA 215 3.2 12:14:12 10° NE 12:20:45 83° NW 12:27:17 10° SW
Meteor 1-31 Rocket 4.1 12:17:36 10° NNE 12:21:14 43° E 12:24:51 10° S
SJ-7 4.4 12:19:43 10° NNE 12:23:50 89° W 12:27:55 10° SSW
BlueWalker 3 3.8 12:25:35 13° WSW 12:27:04 16° SW 12:29:24 10° SSW
SMAP 3.3 12:29:44 10° NNE 12:34:25 74° ESE 12:39:03 10° S
Cosmos 1110 Rocket 4.5 12:30:26 10° NW 12:35:24 41° WSW 12:40:20 10° S
Cosmos 1842 Rocket 3.6 12:31:44 10° NNW 12:36:08 65° W 12:40:31 10° S
H-2A R/B 3.4 12:36:41 10° NNW 12:39:34 16° WNW 12:42:29 10° W
Helios 1B rocket 2.6 12:38:27 10° N 12:42:15 44° WNW 12:46:02 10° SW
CENTAUR R/B 3.6 12:34:46 10° NNW 12:43:07 73° NE 12:52:20 10° SE
Cosmos 2219 Rocket 3.6 12:40:06 10° W 12:43:37 17° NW 12:47:10 10° N
Cosmos 1437 Rocket 3.1 12:41:00 10° SW 12:44:27 37° WNW 12:47:54 10° N
CZ-4B R/B 4.0 12:40:59 10° NNE 12:44:59 86° ESE 12:49:08 10° SSW
DELTA 2 DEB (DPAF) 4.4 12:47:07 10° S 12:51:13 45° W 12:55:22 10° NNW
USA 267 3.5 12:47:53 10° ESE 12:54:23 72° NE 13:00:56 10° NW
Cosmos 1302 Rocket 4.0 12:49:56 10° NNW 12:55:05 65° WSW 13:00:14 10° S
Cosmos 1943 Rocket 2.2 12:49:41 10° NNW 12:55:16 89° ENE 13:00:46 10° SSE
Cosmos 1461 3.3 12:51:59 10° SSW 12:56:27 76° ESE 13:00:51 10° NE
SL-16 R/B 3.1 12:56:38 10° S 13:02:11 57° ESE 13:07:46 10° NNE
USA 234 3.9 23:01:07 10° ENE 23:07:14 40° SE 23:13:17 10° SSW
Cosmos 1140 Rocket 4.1 23:04:12 10° N 23:08:51 32° ENE 23:13:27 10° SE
Cosmos 1076 Rocket 3.5 23:05:24 10° N 23:09:46 69° E 23:14:04 10° SSE
SJ-7 4.4 23:06:25 10° SSE 23:10:18 59° ENE 23:14:17 10° N
Cosmos 2227 Rocket 3.7 23:05:38 10° WSW 23:10:42 33° NW 23:15:48 10° N
Cosmos 1602 4.2 23:09:07 10° N 23:12:36 37° ENE 23:16:06 10° SSE
Nadezhda 4 Rocket 4.2 23:11:22 10° SSE 23:17:12 47° E 23:23:01 10° NNE
ARGOS 4.2 23:12:41 10° S 23:17:57 53° W 23:23:16 10° NNW
Cosmos 1782 4.3 23:17:54 10° SE 23:20:31 17° E 23:23:09 10° NE
Cosmos 1500 3.0 23:18:43 10° N 23:22:15 89° WNW 23:25:47 10° S
DMSP B5D2-2 4.1 23:18:36 10° NNE 23:23:50 76° ESE 23:29:03 10° S
Cosmos 1603 4.2 23:21:21 10° N 23:26:37 36° ENE 23:31:47 10° ESE
SL-8 R/B 3.7 23:22:02 10° WNW 23:26:49 72° NNE 23:31:36 10° ESE
Helios 1B rocket 2.9 23:24:00 10° S 23:27:53 63° WSW 23:31:49 10° NNW
Cosmos 1812 Rocket 4.1 23:24:28 10° SSE 23:28:27 37° E 23:32:29 10° NNE
Helios 1A 3.8 23:25:30 10° NE 23:29:10 29° E 23:32:47 10° SSE
ISS -3.5 23:27:15 10° WNW 23:30:35 72° SW 23:33:55 10° SE
CZ-4B R/B 3.7 23:27:21 10° SSE 23:30:50 52° ENE 23:34:23 10° N
H-2A R/B 3.7 23:34:30 10° S 23:34:55 10° SSE 23:35:21 10° SSE
CZ-4B R/B 3.9 23:32:27 10° SE 23:37:07 38° ENE 23:41:41 10° N
SMAP 3.0 23:33:25 10° SSE 23:38:04 82° ENE 23:42:44 10° N
SL-16 R/B 3.8 23:34:16 10° NW 23:39:30 39° WSW 23:44:41 10° S
NOAA 6 4.5 23:42:27 10° SE 23:47:09 38° ENE 23:51:51 10° N
USA 276 3.1 23:48:18 10° WNW 23:50:21 24° NNW 23:51:20 19° NNE
Cosmos 1943 3.1 23:44:43 10° NNW 23:50:23 78° ENE 23:56:01 10° SSE
APEX 2.7 23:51:37 10° SSW 23:54:38 67° WNW 23:56:41 17° NNE
